User: anonymous   Login
Location: Innsbruck
(47.2657°N, 11.3914°E)
Time: 09:02:03
(UTC+02:00)
Language:

Envisat - Orbit

View from above orbital plane
View from above orbital plane
View from above satellite
View from above satellite

Ground track
Ground track

The orbit data is extracted from the following two-line orbital elements,

1 27386U 02009A   21296.95956632  .00000040  00000-0  26589-4 0  9990
2 27386  98.1604 284.5208 0001239  91.1783 322.9235 14.38049014 29549
Epoch (UTC): 23 October 2021 23:01:46
Eccentricity: 0.0001239
inclination: 98.1604°
perigee height: 764 km
apogee height: 766 km
right ascension of ascending node: 284.5208°
argument of perigee: 91.1783°
revolutions per day: 14.38049014
mean anomaly at epoch: 322.9235°
orbit number at epoch: 2954

The dashed part of the orbit path shows where the satellite is in the earth's shadow,  

DLR